YUNYAO-1 20 (58760 NORAD) Tracking and Keplerian Element Data

This shows tracking and keplerian element data for the satellite.

Feedback or suggestion? Click here.




ElementValue
Catalog58760
NameYUNYAO-1 20
Epoch Orbit27
Epoch Day12.97661908
Epoch Year2024
RAAN163.3017
Inclination49.9888
Eccentricity0.0013933
Argument of Perigee296.32
Mean Anonmoly63.6324
Mean Motion15.25903129
Decay Rate0.0002303
L11 58760U 24009C 24012.97661908 .00023030 00000+0 89280-3 0 9993
L22 58760 49.9888 163.3017 0013933 296.3200 63.6324 15.25903129 276



Live tracking and technical data element details for YUNYAO-1 20 (NORAD 58760). YUNYAO-1 20 can be tracked NOW for your location showing map with azimuth and elevation plus other details from your city location.







IsCatalogInMostPopularTable: catalog: 58760, numindb: 74
Update: records affected: 1



GetName: 58760 YUNYAO-1 20

Hit Count: updated at: Wed, 17 Apr 2024 03:29:03 GMT